Change the Weather History Date:

Saturday, August 24, 2013

  Actual Average Record
Temperature  
Mean Temperature 68 °F 70 °F  
Max Temperature 79 °F 78 °F 100 °F (1948)
Min Temperature 57 °F 62 °F 47 °F (1887)
Degree Days  
Heating Degree Days 0 1  
Month to date heating degree days 8 3  
Since 1 June heating degree days 109 98  
Since 1 July heating degree days 22 14  
Cooling Degree Days 3 6  
Month to date cooling degree days 107 158  
Year to date cooling degree days 486 530  
Since 1 June cooling degree days 447 500  
Growing Degree Days 18 (Base 50)    
Moisture  
Dew Point 60 °F    
Average Humidity 71    
Maximum Humidity 93    
Minimum Humidity 48    
Precipitation  
Precipitation 0.00 in 0.11 in 2.48 in (1892)
Month to date precipitation 3.27 3.14  
Year to date precipitation 30.13 23.35  
Snow  
Snow 0.00 in 0.00 in 0.00 in ()
Month to date snowfall 0.0 0.0  
Since 1 June snowfall 0.0 0.0  
Since 1 July snowfall 0.0 0.0  
Snow Depth 0.00 in    
Sea Level Pressure  
Sea Level Pressure 30.22 in    
Wind  
Wind Speed 7 mph (SSE)    
Max Wind Speed 17 mph    
Max Gust Speed 22 mph    
Visibility 10 miles    
Events      
T = Trace of Precipitation, MM = Missing Value Source: NWS Daily Summary

Daily Weather History Graph

Daily Weather History Graph

Search for Another Location

Airport or City:

Trip Planner

Search our weather history database for the weather conditions in past years. The results will help you decide how hot, cold, wet, or windy it might be!

Date:

Astronomy

Aug. 24, 2013 Rise Set
Actual Time 6:07 AM CDT 7:39 PM CDT
Civil Twilight 5:37 AM CDT 8:08 PM CDT
Nautical Twilight 5:01 AM CDT 8:44 PM CDT
Astronomical Twilight 4:23 AM CDT 9:23 PM CDT
Moon 9:25 PM CDT (8/24) 10:14 AM CDT (8/24)
Length of Visible Light 14h 31m
Length of Day
13h 31m
Waning Gibbous, 84% of the Moon is Illuminated
Aug 24
Waning Gibbous
Aug 28
Last Quarter
Sep 5
New
Sep 12
First Quarter
Sep 19
Full

Hourly Weather History & Observations

Time (CDT) Temp. Dew Point Humidity Pressure Visibility Wind Dir Wind Speed Gust Speed Precip Events Conditions
12:52 AM 61.0 °F 57.9 °F 90% 30.19 in 10.0 mi Calm Calm - N/A   Clear
1:52 AM 59.0 °F 55.9 °F 90% 30.20 in 10.0 mi Calm Calm - N/A   Clear
2:52 AM 57.0 °F 54.0 °F 89% 30.21 in 10.0 mi Calm Calm - N/A   Clear
3:52 AM 57.9 °F 55.9 °F 93% 30.22 in 10.0 mi Calm Calm - N/A   Clear
4:52 AM 57.9 °F 55.9 °F 93% 30.24 in 10.0 mi Calm Calm - N/A   Clear
5:52 AM 57.9 °F 55.9 °F 93% 30.25 in 10.0 mi Calm Calm - N/A   Partly Cloudy
6:52 AM 59.0 °F 55.9 °F 90% 30.26 in 10.0 mi Calm Calm - N/A   Partly Cloudy
7:52 AM 66.0 °F 60.1 °F 81% 30.27 in 10.0 mi Calm Calm - N/A   Partly Cloudy
8:52 AM 72.0 °F 63.0 °F 73% 30.27 in 10.0 mi SE 6.9 mph - N/A   Partly Cloudy
9:52 AM 73.9 °F 62.1 °F 66% 30.27 in 10.0 mi SSE 10.4 mph - N/A   Partly Cloudy
10:52 AM 77.0 °F 57.0 °F 50% 30.27 in 10.0 mi South 11.5 mph - N/A   Partly Cloudy
11:52 AM 78.1 °F 57.9 °F 50% 30.25 in 10.0 mi SSE 5.8 mph - N/A   Partly Cloudy
12:52 PM 78.1 °F 60.1 °F 54% 30.25 in 10.0 mi SE 12.7 mph - N/A   Partly Cloudy
1:52 PM 77.0 °F 64.0 °F 64% 30.24 in 10.0 mi SE 12.7 mph - N/A   Scattered Clouds
2:52 PM 78.1 °F 64.9 °F 64% 30.23 in 10.0 mi SE 12.7 mph - N/A   Scattered Clouds
3:52 PM 79.0 °F 64.0 °F 60% 30.21 in 10.0 mi SE 12.7 mph - N/A   Scattered Clouds
4:52 PM 77.0 °F 62.1 °F 60% 30.19 in 10.0 mi SE 13.8 mph - N/A   Scattered Clouds
5:52 PM 75.9 °F 62.1 °F 62% 30.19 in 10.0 mi SSE 12.7 mph - N/A   Partly Cloudy
6:52 PM 75.0 °F 61.0 °F 62% 30.19 in 10.0 mi SSE 8.1 mph - N/A   Partly Cloudy
7:52 PM 73.0 °F 60.1 °F 64% 30.20 in 10.0 mi South 5.8 mph - N/A   Scattered Clouds
8:52 PM 71.1 °F 61.0 °F 70% 30.20 in 10.0 mi SSE 8.1 mph - N/A   Scattered Clouds
9:52 PM 71.1 °F 62.1 °F 73% 30.21 in 10.0 mi South 8.1 mph - N/A   Partly Cloudy
10:52 PM 71.1 °F 62.1 °F 73% 30.20 in 10.0 mi South 6.9 mph - N/A   Scattered Clouds
11:52 PM 71.1 °F 61.0 °F 70% 30.19 in 10.0 mi South 5.8 mph - N/A   Partly Cloudy